Charter Quote
Worldwide +1-877-727-2538 Call
Select Language Lang
SAFETY RELIABILITY EXPERIENCE

Private Jet Charter Services - Diwopu (ZWWW)

Paramount Business Jets offers private jet charter flights and luxury airliner charters to and from Diwopu.

AIRPORT INFORMATION
ICAOZWWW
LOCATIONUrumqi, China
FACILITY TYPEAIRPORT

At Paramount Business Jets you can hire chartered private jets to and from Diwopu with as little as 4 hours of notice. All flights booked via Paramount Business Jets are operated by certified direct air carriers that meet and exceed the FAA part 135 and 121 protocol or a foreign equivalent safety authority. Furthermore, Paramount Business Jets subscribes to ARGUS for their third party safety checks of operators, aircraft, and crews prior each and every flight to and from Diwopu and worldwide.

  • Quote a trip using Diwopu or call us 24/7 - 365 days a year at +1-877-727-2538.
Questions? Call +1-877-727-2538

METAR Weather Data at Diwopu, ZWWW

STATIONZWWW
OBSERVEDMon Dec 9, 16:00 UTC
NOWMon Dec 9, 16:17 UTC
AGE17 min ago
WINDWNW at 2 mph
VISIBILITY0.2 mile
CONDITIONSfreezing fog
CLOUDSvertical visibility to 100 ft
TEMP14°F (-10°C)
DEWPT12°F (-11°C)
HUMIDITY92%
BAROMETER1025 hPa (30.27 in Hg)
METARZWWW 091600Z 30001MPS 0100 R25/0325V0550N FZFG VV001 M10/M11 Q1025 NOSIG

Call us on +1-877-727-2538 (24 Hours) to Hire a Private Jet or Get a Quick Quote.

Find Airports Near any Location

Processing
...